Freeport, IL

2:31 AM CST on December 06, 2019 (GMT -0600)
Albertus

Weather History for KFEP - October, 2019

Change the Weather History Date:

Wednesday, October 16, 2019

  Actual Average Record
Temperature  
Mean Temperature 44 °F -  
Max Temperature 52 °F 62 °F 82 °F (1989)
Min Temperature 37 °F 37 °F 26 °F (1991)
Degree Days  
Heating Degree Days 20    
Moisture  
Dew Point 35 °F    
Average Humidity 68    
Maximum Humidity 91    
Minimum Humidity 51    
Precipitation  
Precipitation 0.00 in - - ()
Sea Level Pressure  
Sea Level Pressure 29.99 in    
Wind  
Wind Speed 14 mph (NW)    
Max Wind Speed 18 mph    
Max Gust Speed 32 mph    
Visibility 10 miles    
Events      
Averages and records for this station are not official NWS values.
T = Trace of Precipitation, MM = Missing Value Source: NWS Daily Summary

Daily Weather History Graph

Daily Weather History Graph

Search for Another Location

Airport or City:

Astronomy

Oct. 16, 2019 Rise Set
Actual Time 7:11 AM CDT 6:15 PM CDT
Civil Twilight 6:43 AM CDT 6:43 PM CDT
Nautical Twilight 6:11 AM CDT 7:15 PM CDT
Astronomical Twilight 5:38 AM CDT 7:48 PM CDT
Moon 8:05 PM CDT (10/16) 9:44 AM CDT (10/16)
Length of Visible Light 11h 59m
Length of Day
11h 03m
Waning Gibbous, 92% of the Moon is Illuminated
Oct 16
Waning Gibbous
Oct 21
Last Quarter
Oct 27
New
Nov 4
First Quarter
Nov 12
Full

Hourly Weather History & Observations

Time (CDT) Temp. Windchill Dew Point Humidity Pressure Visibility Wind Dir Wind Speed Gust Speed Precip Events Conditions
12:15 AM 43.7 °F 37.3 °F 35.1 °F 72% 29.88 in 10.0 mi WNW 12.7 mph 25.3 mph N/A   Scattered Clouds
12:35 AM 42.8 °F 34.5 °F 35.6 °F 76% 29.89 in 10.0 mi WNW 18.4 mph 26.5 mph N/A   Scattered Clouds
12:55 AM 42.8 °F 35.4 °F 35.6 °F 76% 29.89 in 10.0 mi WNW 15.0 mph 23.0 mph N/A   Mostly Cloudy
1:15 AM 43.7 °F 36.9 °F 35.6 °F 73% 29.89 in 10.0 mi WNW 13.8 mph 21.9 mph N/A   Overcast
1:35 AM 44.1 °F 36.8 °F 35.6 °F 72% 29.90 in 10.0 mi WNW 16.1 mph 24.2 mph N/A   Overcast
1:55 AM 44.1 °F 36.5 °F 35.8 °F 73% 29.89 in 10.0 mi WNW 17.3 mph 23.0 mph N/A   Overcast
2:15 AM 44.2 °F 36.4 °F 35.6 °F 72% 29.89 in 10.0 mi WNW 18.4 mph 24.2 mph N/A   Overcast
2:35 AM 44.1 °F 37.1 °F 35.2 °F 71% 29.90 in 10.0 mi NW 15.0 mph 28.8 mph N/A   Overcast
2:55 AM 44.6 °F 37.4 °F 34.7 °F 68% 29.90 in 10.0 mi NW 16.1 mph 26.5 mph N/A   Overcast
3:15 AM 44.2 °F 37.6 °F 34.7 °F 69% 29.90 in 10.0 mi NW 13.8 mph 27.6 mph N/A   Overcast
3:35 AM 44.2 °F 36.4 °F 35.1 °F 70% 29.90 in 10.0 mi NW 18.4 mph 32.2 mph N/A   Overcast
3:55 AM 44.1 °F 36.8 °F 34.9 °F 70% 29.91 in 10.0 mi NW 16.1 mph 26.5 mph N/A   Overcast
4:15 AM 44.1 °F 36.8 °F 35.4 °F 72% 29.91 in 10.0 mi NW 16.1 mph 25.3 mph N/A   Overcast
4:35 AM 43.9 °F 36.5 °F 34.9 °F 71% 29.92 in 10.0 mi NW 16.1 mph 26.5 mph N/A   Overcast
4:55 AM 43.9 °F 36.5 °F 35.1 °F 71% 29.92 in 10.0 mi NW 16.1 mph 21.9 mph N/A   Overcast
5:15 AM 43.9 °F 36.8 °F 35.2 °F 72% 29.93 in 10.0 mi NW 15.0 mph 25.3 mph N/A   Overcast
5:35 AM 43.5 °F 36.4 °F 34.9 °F 72% 29.93 in 10.0 mi NW 15.0 mph 25.3 mph N/A   Overcast
5:55 AM 43.5 °F 36.1 °F 34.9 °F 72% 29.93 in 10.0 mi NW 16.1 mph 20.7 mph N/A   Overcast
6:15 AM 43.3 °F 36.5 °F 34.9 °F 72% 29.94 in 10.0 mi NW 13.8 mph 20.7 mph N/A   Overcast
6:35 AM 43.3 °F 36.5 °F 34.9 °F 72% 29.94 in 10.0 mi NW 13.8 mph 20.7 mph N/A   Overcast
6:55 AM 43.3 °F 36.8 °F 34.9 °F 72% 29.95 in 10.0 mi NW 12.7 mph 19.6 mph N/A   Overcast
7:15 AM 43.2 °F 37.4 °F 35.1 °F 73% 29.96 in 10.0 mi NW 10.4 mph 16.1 mph N/A   Overcast
7:35 AM 43.5 °F 36.4 °F 34.9 °F 72% 29.96 in 10.0 mi NNW 15.0 mph 21.9 mph N/A   Overcast
7:55 AM 43.3 °F 37.2 °F 35.1 °F 73% 29.97 in 10.0 mi NW 11.5 mph 20.7 mph N/A   Overcast
8:15 AM 43.7 °F 36.6 °F 34.9 °F 71% 29.98 in 10.0 mi NNW 15.0 mph 23.0 mph N/A   Overcast
8:35 AM 43.7 °F 36.9 °F 34.5 °F 70% 29.98 in 10.0 mi NNW 13.8 mph 21.9 mph N/A   Overcast
8:55 AM 44.1 °F 37.4 °F 34.3 °F 69% 29.99 in 10.0 mi NNW 13.8 mph 23.0 mph N/A   Overcast
9:15 AM 44.2 °F 37.3 °F 34.7 °F 69% 29.99 in 10.0 mi NW 15.0 mph 20.7 mph N/A   Overcast
9:35 AM 44.2 °F 38.0 °F 34.3 °F 68% 30.00 in 10.0 mi NNW 12.7 mph 23.0 mph N/A   Overcast
9:55 AM 44.6 °F 37.2 °F 34.2 °F 67% 30.01 in 10.0 mi NNW 17.3 mph - N/A   Overcast
10:15 AM 44.6 °F 36.9 °F 34.2 °F 67% 30.01 in 10.0 mi NNW 18.4 mph 24.2 mph N/A   Overcast
10:35 AM 44.6 °F 37.4 °F 34.3 °F 67% 30.02 in 10.0 mi NNW 16.1 mph 25.3 mph N/A   Overcast
10:55 AM 45.1 °F 39.1 °F 34.7 °F 67% 30.03 in 10.0 mi NNW 12.7 mph 20.7 mph N/A   Overcast
11:15 AM 45.5 °F 38.1 °F 34.7 °F 66% 30.03 in 10.0 mi NNW 18.4 mph 26.5 mph N/A   Overcast
11:35 AM 47.7 °F - 35.1 °F 62% 30.03 in 10.0 mi NW 17.3 mph 25.3 mph N/A   Overcast
11:55 AM 48.7 °F - 35.6 °F 60% 30.02 in 10.0 mi NW 16.1 mph 24.2 mph N/A   Mostly Cloudy
12:15 PM 48.7 °F - 34.5 °F 58% 30.02 in 10.0 mi NNW 17.3 mph 24.2 mph N/A   Scattered Clouds
12:35 PM 50.5 °F - 35.2 °F 56% 30.02 in 10.0 mi NNW 16.1 mph 23.0 mph N/A   Scattered Clouds
12:55 PM 50.2 °F - 35.6 °F 57% 30.02 in 10.0 mi NW 16.1 mph 23.0 mph N/A   Scattered Clouds
1:15 PM 49.5 °F - 34.9 °F 57% 30.02 in 10.0 mi NW 11.5 mph - N/A   Mostly Cloudy
1:35 PM 50.2 °F - 34.9 °F 56% 30.02 in 10.0 mi NNW 12.7 mph 21.9 mph N/A   Mostly Cloudy
1:55 PM 50.0 °F - 35.2 °F 57% 30.02 in 10.0 mi NW 17.3 mph 21.9 mph N/A   Overcast
2:15 PM 51.4 °F - 34.9 °F 53% 30.02 in 10.0 mi NW 12.7 mph - N/A   Overcast
2:35 PM 51.8 °F - 34.5 °F 52% 30.01 in 10.0 mi NW 13.8 mph 24.2 mph N/A   Mostly Cloudy
2:55 PM 49.8 °F - 34.0 °F 55% 30.01 in 10.0 mi NW 15.0 mph 20.7 mph N/A   Scattered Clouds
3:15 PM 50.7 °F - 34.2 °F 53% 30.01 in 10.0 mi NW 12.7 mph 20.7 mph N/A   Scattered Clouds
3:35 PM 52.2 °F - 34.3 °F 51% 30.01 in 10.0 mi NNW 11.5 mph 17.3 mph N/A   Mostly Cloudy
3:55 PM 51.8 °F - 34.0 °F 51% 30.01 in 10.0 mi NW 12.7 mph 18.4 mph N/A   Mostly Cloudy
4:15 PM 49.8 °F - 34.2 °F 55% 30.02 in 10.0 mi NNW 6.9 mph 16.1 mph N/A   Scattered Clouds
4:35 PM 51.8 °F - 34.2 °F 51% 30.02 in 10.0 mi NW 11.5 mph - N/A   Mostly Cloudy
4:55 PM 49.6 °F - 33.6 °F 54% 30.01 in 10.0 mi NNW 8.1 mph - N/A   Scattered Clouds
5:15 PM 50.2 °F - 34.3 °F 55% 30.01 in 10.0 mi NW 9.2 mph 16.1 mph N/A   Scattered Clouds
5:35 PM 49.5 °F - 33.6 °F 54% 30.02 in 10.0 mi WNW 9.2 mph - N/A   Scattered Clouds
5:55 PM 48.0 °F - 34.2 °F 59% 30.02 in 10.0 mi WNW 6.9 mph - N/A   Scattered Clouds
6:15 PM 46.8 °F - 34.0 °F 61% 30.02 in 10.0 mi WNW 9.2 mph - N/A   Clear
6:35 PM 45.9 °F 42.9 °F 34.0 °F 63% 30.03 in 10.0 mi WNW 5.8 mph - N/A   Clear
6:55 PM 44.1 °F 39.5 °F 34.0 °F 68% 30.04 in 10.0 mi WNW 8.1 mph - N/A   Clear
7:15 PM 44.1 °F 39.0 °F 33.8 °F 67% 30.04 in 10.0 mi NW 9.2 mph - N/A   Clear
7:35 PM 43.3 °F 38.6 °F 33.8 °F 69% 30.05 in 10.0 mi WNW 8.1 mph - N/A   Clear
7:55 PM 43.2 °F 39.0 °F 34.0 °F 70% 30.05 in 10.0 mi NW 6.9 mph - N/A   Clear
8:15 PM 42.4 °F 38.1 °F 34.2 °F 72% 30.05 in 10.0 mi WNW 6.9 mph - N/A   Clear
8:35 PM 40.8 °F 37.8 °F 34.2 °F 77% 30.05 in 10.0 mi West 4.6 mph - N/A   Clear
8:55 PM 40.1 °F 36.9 °F 34.2 °F 79% 30.05 in 10.0 mi West 4.6 mph - N/A   Clear
9:15 PM 39.6 °F 34.7 °F 34.3 °F 82% 30.05 in 10.0 mi West 6.9 mph - N/A   Clear
9:35 PM 38.7 °F 34.3 °F 34.2 °F 84% 30.06 in 10.0 mi West 5.8 mph - N/A   Clear
10:15 PM 38.8 °F 35.4 °F 34.7 °F 85% 30.07 in 10.0 mi West 4.6 mph - N/A   Clear
10:35 PM 38.7 °F 35.2 °F 34.7 °F 86% 30.07 in 10.0 mi West 4.6 mph - N/A   Clear
10:55 PM 38.3 °F 34.8 °F 34.7 °F 87% 30.07 in 10.0 mi West 4.6 mph - N/A   Clear
11:15 PM 38.1 °F 32.9 °F 34.3 °F 86% 30.07 in 10.0 mi West 6.9 mph - N/A   Clear
11:35 PM 37.6 °F 33.1 °F 34.7 °F 89% 30.07 in 10.0 mi West 5.8 mph - N/A   Clear
11:55 PM 37.0 °F 32.4 °F 34.7 °F 91% 30.07 in 10.0 mi West 5.8 mph - N/A   Clear